COSMOS 2251 DEB, 37486

Orbit data source: Space-Track

COSMOS 2251 DEB, 37486 is space debris in LEO originally from a launch on Wed, 16 Jun 1993 UTC launched from the Plesetsk Missile And Space Complex (PKMTR). The debris from Iridium 33, an American commercial communications satellite, has been tracked extensively since its accidental collision with the defunct Russian satellite Cosmos 2251 in 2009. This event, occurring at high speed in low Earth orbit (LEO), generated thousands of pieces of space debris, significantly increasing the risk of further collisions. The Iridium 33 debris cloud has impacted space traffic management and orbital debris mitigation strategies, making it a subject of ongoing study in space situational awareness.

Loading next visibility...
Identifier
37486, 1993-036BLP
Orbit
LEO
Country
Flag of CISCIS
Related business
Manufacturer
Unknown
Mission
Spacecraft
Bus & Motor
Unknown
Mass
Unknown
Launch date (UTC)
1993-06-16 (33 years ago)
Launch vehicle
Unknown
Launch site
Plesetsk Missile And Space Complex (PKMTR)
Object type
Payload
Rocket body
Debris
Shape & HBR
Unknown shape, 0.1 m
Radar Cross Section
Small (<0.1 m²)

Expand to show TLE details & history
Last TLE update: 1 day ago

TLE from 1 day ago
0 COSMOS 2251 DEB
1 37486U 93036BLP 26121.53642883  .00004672  00000-0  19045-2 0  9990
2 37486  73.6917 221.4687 0224309  68.8507 308.2500 14.14948214653467
Epoch: 2026-05-01T12:52Z
TLE epoch observation values (Epoch: 2026-05-01T12:52:27.450Z)
Latitude
14.4067°
Longitude
173.17418°
Altitude
746.331 km
Speed
7.533 km/s
True Right ascension
15h 03m 01s
True Declination
14° 19' 26"
Sunlit
Object was in full shadow at epoch
Visualization orbit readout
Latitude
Unknown
Longitude
Unknown
Altitude
Unknown
Speed
Unknown
Apparent Right ascension
Unknown
Apparent Declination
Unknown
Sunlit
N/A
Visualization observer readout
Local Sidereal Time
20:46:54
Azimuth
Unknown
Elevation
Unknown
Doppler factor
Unknown
Orbital elements
Apogee altitude
1,002.076 km
Perigee altitude
678.25 km
Semi-major axis
7,218.3 km
Eccentricity
0.02243
Inclination
73.6917°
RAAN
221.4687°
Arg. of periapsis
68.8507°
True anomaly
306.19624°
Mean anomaly
308.25°
Eccentric anomaly
307.22666°
Mean motion
3.53908 °/min
Orbital period
101.72 mins
BSTAR
0.0019045
Loading maneuver chart data...
Computing Atmospheric mass density...
Loading historical data...
Loading historical data...
Loading historical data...
Loading historical data...
Loading historical data...
Loading historical data...
Loading historical data...

Documentation

Showing up to 5 results
|